Weather History for KELN - November, 2013

Change the Weather History Date:

Monday, November 25, 2013

  Actual Average (KYKM) Record (KYKM)
Temperature  
Mean Temperature 30 °F 34 °F  
Max Temperature 42 °F 43 °F 64 °F (1949)
Min Temperature 18 °F 25 °F -7 °F (1985)
Degree Days  
Heating Degree Days 35 31  
Month to date heating degree days 668  
Since 1 July heating degree days 1372  
Cooling Degree Days 0 0  
Month to date cooling degree days 0  
Year to date cooling degree days 472  
Moisture  
Dew Point 19 °F    
Average Humidity 69    
Maximum Humidity 81    
Minimum Humidity 45    
Precipitation  
Precipitation 0.00 in 0.04 in 0.27 in (1971)
Month to date precipitation 0.84  
Year to date precipitation 6.51  
Snow  
Snow 0.00 in 0.10 in 1.30 in (2005)
Month to date snowfall 2.3  
Year to date snowfall 11.0  
Since 1 July snowfall 2.4  
Snow Depth -    
Sea Level Pressure  
Sea Level Pressure 30.46 in    
Wind  
Wind Speed 1 mph (ENE)    
Max Wind Speed 6 mph    
Max Gust Speed -    
Visibility 10 miles    
Events      
T = Trace of Precipitation, MM = Missing Value Source: NWS Daily Summary

Daily Weather History Graph

Daily Weather History Graph

Search for Another Location

Airport or City:

Trip Planner

Search our weather history database for the weather conditions in past years. The results will help you decide how hot, cold, wet, or windy it might be!

Date:

Astronomy

Nov. 25, 2013 Rise Set
Actual Time 7:20 AM PST 4:18 PM PST
Civil Twilight 6:45 AM PST 4:52 PM PST
Nautical Twilight 6:08 AM PST 5:30 PM PST
Astronomical Twilight 5:31 AM PST 6:06 PM PST
Moon No Moon Rise 12:23 PM PST (11/25)
Length of Visible Light 10h 06m
Length of Day
8h 58m
Waning Gibbous, 50% of the Moon is Illuminated
Nov 25
Waning Gibbous
Dec 2
New
Dec 9
First Quarter
Dec 17
Full
Dec 25
Last Quarter

Hourly Weather History & Observations

Time (PST) Temp. Windchill Dew Point Humidity Pressure Visibility Wind Dir Wind Speed Gust Speed Precip Events Conditions
12:53 AM 21.0 °F - 16.0 °F 81% 30.44 in 10.0 mi Calm Calm - N/A   Clear
1:53 AM 23.0 °F - 17.1 °F 78% 30.45 in 10.0 mi Calm Calm - N/A   Clear
2:53 AM 21.0 °F - 16.0 °F 81% 30.45 in 10.0 mi Calm Calm - N/A   Clear
3:53 AM 21.9 °F - 16.0 °F 78% 30.46 in - Calm Calm - N/A   Clear
4:53 AM 21.0 °F - 16.0 °F 81% 30.47 in 10.0 mi Calm Calm - N/A   Clear
5:53 AM 19.9 °F 13.4 °F 14.0 °F 78% 30.48 in - ESE 4.6 mph - N/A   Clear
6:53 AM 19.0 °F - 14.0 °F 81% 30.49 in - Calm Calm - N/A   Clear
7:53 AM 18.0 °F - 12.0 °F 78% 30.50 in - Calm Calm - N/A   Clear
8:53 AM 27.0 °F - 19.0 °F 72% 30.50 in - Calm Calm - N/A   Clear
9:53 AM 32.0 °F - 21.0 °F 64% 30.50 in - Calm Calm - N/A   Clear
10:53 AM 35.1 °F - 21.9 °F 59% 30.49 in - Calm Calm - N/A   Clear
11:53 AM 37.9 °F - 21.0 °F 51% 30.48 in 10.0 mi Calm Calm - N/A   Clear
12:53 PM 41.0 °F - 21.9 °F 47% 30.45 in 10.0 mi Calm Calm - N/A   Clear
1:53 PM 42.1 °F - 21.9 °F 45% 30.43 in 10.0 mi Calm Calm - N/A   Clear
2:53 PM 42.1 °F 40.2 °F 21.9 °F 45% 30.43 in 10.0 mi West 3.5 mph - N/A   Clear
3:53 PM 37.9 °F - 21.0 °F 51% 30.43 in 10.0 mi Calm Calm - N/A   Clear
4:53 PM 30.9 °F 27.5 °F 19.9 °F 64% 30.44 in 10.0 mi NNE 3.5 mph - N/A   Clear
5:53 PM 32.0 °F 26.4 °F 21.0 °F 64% 30.44 in - NE 5.8 mph - N/A   Clear
6:53 PM 30.9 °F 26.2 °F 21.0 °F 67% 30.44 in 10.0 mi East 4.6 mph - N/A   Clear
7:53 PM 28.0 °F 24.2 °F 19.9 °F 72% 30.45 in - East 3.5 mph - N/A   Clear
8:53 PM 27.0 °F - 19.9 °F 75% 30.43 in 10.0 mi Calm Calm - N/A   Clear
9:53 PM 26.1 °F - 19.9 °F 78% 30.43 in 10.0 mi Calm Calm - N/A   Clear
10:53 PM 26.1 °F - 19.9 °F 78% 30.43 in - Calm Calm - N/A   Clear
11:53 PM 25.0 °F - 19.0 °F 78% 30.42 in 9.0 mi Calm Calm - N/A   Clear